Total_Precipitation_Accumulation
0.00 0.01 0.04 0.03 0.01 0.01 0.02 0.03 0.05 0.05 0.06 0.08 0.10 0.10 0.07 0.05 0.04 0.03 0.04 0.03 0.03 0.04 0.04 0.04 0.06 0.06 0.06 0.06 0.05 0.02 0.01 0.01 0.02 0.02 0.02 0.03 0.04 0.06 0.07 0.05 0.11 0.11 0.06
0.00 0.01 0.03 0.02 0.01 0.01 0.02 0.03 0.04 0.04 0.04 0.06 0.08 0.09 0.06 0.04 0.03 0.03 0.04 0.06 0.05 0.04 0.04 0.05 0.04 0.04 0.05 0.06 0.03 0.01 0.00 0.00 0.01 0.01 0.02 0.03 0.05 0.08 0.08 0.05 0.10 0.09 0.04
0.00 0.00 0.02 0.02 0.02 0.01 0.02 0.03 0.05 0.04 0.03 0.03 0.05 0.05 0.04 0.03 0.03 0.02 0.03 0.09 0.12 0.09 0.06 0.03 0.03 0.03 0.03 0.03 0.02 0.01 0.01 0.00 0.01 0.01 0.03 0.06 0.03 0.06 0.10 0.05 0.03 0.02 0.02
0.00 0.00 0.01 0.02 0.02 0.01 0.01 0.02 0.03 0.04 0.04 0.06 0.07 0.06 0.05 0.05 0.04 0.03 0.04 0.06 0.09 0.08 0.07 0.03 0.02 0.02 0.01 0.01 0.01 0.01 0.02 0.01 0.01 0.01 0.07 0.23 0.12 0.07 0.10 0.08 0.06 0.04 0.02
0.00 0.00 0.02 0.02 0.01 0.01 0.01 0.01 0.03 0.04 0.05 0.08 0.08 0.07 0.07 0.07 0.06 0.05 0.05 0.06 0.06 0.04 0.04 0.04 0.03 0.03 0.02 0.01 0.01 0.02 0.02 0.02 0.01 0.01 0.06 0.17 0.17 0.11 0.11 0.14 0.13 0.11 0.08
0.00 0.00 0.02 0.02 0.01 0.01 0.01 0.02 0.02 0.03 0.04 0.06 0.06 0.05 0.06 0.06 0.07 0.07 0.06 0.08 0.09 0.08 0.05 0.06 0.06 0.07 0.05 0.03 0.02 0.02 0.02 0.02 0.02 0.02 0.04 0.05 0.16 0.18 0.16 0.24 0.28 0.26 0.21
0.00 0.01 0.02 0.02 0.01 0.01 0.01 0.02 0.02 0.03 0.03 0.04 0.04 0.03 0.03 0.03 0.05 0.05 0.06 0.06 0.07 0.09 0.09 0.09 0.10 0.08 0.09 0.08 0.05 0.04 0.03 0.04 0.04 0.02 0.02 0.04 0.12 0.12 0.21 0.41 0.58 0.54 0.43
0.00 0.01 0.02 0.02 0.01 0.01 0.01 0.01 0.02 0.02 0.02 0.02 0.02 0.02 0.02 0.02 0.03 0.04 0.04 0.04 0.02 0.03 0.05 0.08 0.12 0.11 0.09 0.13 0.11 0.07 0.06 0.07 0.06 0.04 0.03 0.06 0.10 0.13 0.27 0.52 0.69 0.66 0.57
0.00 0.00 0.01 0.01 0.02 0.02 0.01 0.01 0.02 0.02 0.02 0.02 0.02 0.01 0.01 0.01 0.01 0.01 0.02 0.01 0.01 0.01 0.03 0.04 0.05 0.07 0.07 0.11 0.15 0.14 0.11 0.10 0.11 0.16 0.09 0.16 0.20 0.27 0.48 0.67 0.79 0.78 0.71
0.01 0.00 0.01 0.01 0.01 0.01 0.01 0.01 0.02 0.02 0.02 0.01 0.01 0.01 0.01 0.01 0.01 0.01 0.01 0.01 0.02 0.02 0.03 0.04 0.05 0.05 0.07 0.09 0.11 0.19 0.22 0.16 0.06 0.09 0.20 0.18 0.18 0.41 0.72 0.86 0.98 0.99 0.94
0.01 0.01 0.01 0.01 0.01 0.01 0.01 0.01 0.01 0.01 0.01 0.01 0.02 0.01 0.01 0.01 0.02 0.06 0.04 0.07 0.09 0.13 0.15 0.16 0.16 0.14 0.15 0.12 0.17 0.30 0.32 0.14 0.08 0.09 0.16 0.13 0.21 0.52 0.87 1.01 1.07 1.12 1.10
0.01 0.01 0.01 0.01 0.01 0.01 0.02 0.01 0.01 0.01 0.02 0.02 0.05 0.06 0.05 0.06 0.08 0.05 0.07 0.14 0.31 0.43 0.47 0.56 0.63 0.48 0.37 0.38 0.75 0.78 0.25 0.15 0.17 0.14 0.18 0.14 0.29 0.64 0.96 1.18 1.25 1.21 1.19
0.02 0.01 0.01 0.02 0.02 0.03 0.03 0.02 0.02 0.02 0.05 0.05 0.08 0.13 0.17 0.13 0.10 0.07 0.10 0.23 0.44 0.52 0.53 0.80 0.91 0.65 0.67 0.83 0.83 0.75 0.33 0.25 0.23 0.22 0.27 0.30 0.44 0.82 1.19 1.40 1.52 1.42 1.32
0.05 0.03 0.03 0.03 0.05 0.07 0.06 0.05 0.05 0.04 0.04 0.05 0.08 0.11 0.18 0.22 0.20 0.22 0.26 0.33 0.45 0.50 0.67 0.72 0.86 0.76 0.80 0.80 0.71 0.62 0.57 0.61 0.47 0.54 0.67 0.56 0.55 0.81 1.32 1.57 1.69 1.66 1.42
0.13 0.12 0.10 0.09 0.09 0.10 0.11 0.15 0.13 0.09 0.09 0.11 0.12 0.14 0.22 0.32 0.37 0.44 0.44 0.49 0.41 0.48 0.66 0.83 0.72 0.85 0.90 0.81 0.71 0.69 0.70 0.69 0.60 0.75 0.82 0.76 0.78 0.93 1.46 1.86 1.90 1.82 1.62
0.14 0.15 0.15 0.15 0.19 0.23 0.24 0.25 0.25 0.25 0.25 0.25 0.27 0.32 0.38 0.49 0.65 0.68 0.61 0.65 0.57 0.61 0.78 0.97 0.89 1.03 0.90 0.88 0.74 0.77 0.72 0.69 0.68 0.81 0.88 0.84 0.88 1.03 1.29 1.70 1.95 1.96 1.80
0.22 0.21 0.25 0.36 0.48 0.52 0.53 0.55 0.58 0.65 0.61 0.53 0.57 0.61 0.65 0.72 0.86 0.85 0.76 0.71 0.80 0.91 1.08 1.05 1.08 1.21 1.06 0.95 0.86 0.86 0.73 0.62 0.63 0.75 0.84 0.91 0.87 0.91 1.16 1.50 1.79 1.79 1.71
0.39 0.40 0.46 0.65 0.86 0.95 0.92 0.89 0.94 0.96 0.93 0.92 0.87 0.82 0.91 0.93 0.98 1.09 0.90 0.81 1.07 1.19 1.26 1.33 1.29 1.29 1.27 1.16 1.06 0.90 0.80 0.72 0.64 0.67 0.71 0.83 0.86 0.71 0.91 1.31 1.43 1.37 1.45
0.77 0.89 1.05 1.09 1.16 1.28 1.46 1.48 1.35 1.29 1.17 1.10 1.06 0.99 1.02 1.05 1.07 1.28 1.14 1.14 1.29 1.46 1.42 1.35 1.56 1.61 1.49 1.39 1.20 1.09 0.83 0.73 0.70 0.67 0.65 0.67 0.75 0.75 0.70 0.83 1.13 1.13 1.27
1.34 1.55 1.56 1.54 1.74 2.15 2.39 2.23 1.87 1.50 1.28 1.17 1.08 1.01 1.07 1.19 1.29 1.53 1.38 1.40 1.59 1.73 1.74 1.76 1.84 1.84 1.71 1.67 1.39 1.12 0.89 0.71 0.70 0.66 0.61 0.61 0.61 0.57 0.57 0.58 0.67 0.67 0.78
1.77 1.87 1.95 2.20 2.54 2.67 2.58 2.47 2.35 1.98 1.66 1.32 1.09 1.05 1.16 1.22 1.35 1.62 1.45 1.70 1.91 1.95 2.00 1.99 2.09 1.96 1.82 1.94 1.72 1.24 0.81 0.59 0.49 0.45 0.47 0.49 0.44 0.49 0.58 0.69 0.75 0.81 0.78
1.89 2.10 2.35 2.61 2.87 2.71 2.80 2.95 2.81 2.49 1.87 1.52 1.32 1.26 1.29 1.39 1.45 1.56 1.80 1.90 2.00 2.01 2.01 2.00 2.01 1.83 1.64 1.85 1.81 1.55 1.05 0.72 0.53 0.47 0.53 0.51 0.52 0.53 0.53 0.63 0.78 0.92 0.88
2.08 2.44 2.66 2.80 2.85 2.77 2.87 2.94 2.60 2.35 1.91 1.72 1.65 1.53 1.46 1.57 1.62 1.70 1.85 1.95 1.88 1.85 1.80 1.89 1.87 1.74 1.59 1.64 1.78 1.73 1.35 0.97 0.69 0.51 0.55 0.59 0.73 0.73 0.57 0.55 0.57 0.55 0.58
2.20 2.58 2.90 2.86 2.81 2.75 2.83 2.81 2.63 2.34 2.05 1.95 1.96 1.74 1.58 1.53 1.54 1.61 1.66 1.78 1.80 1.77 1.64 1.60 1.63 1.66 1.59 1.47 1.61 1.66 1.57 1.35 1.10 0.70 0.51 0.52 0.67 0.72 0.67 0.58 0.53 0.51 0.56
2.00 2.30 2.55 2.72 2.75 2.68 2.63 2.56 2.51 2.31 2.05 1.92 1.84 1.72 1.65 1.66 1.55 1.51 1.56 1.68 1.70 1.63 1.55 1.60 1.65 1.63 1.49 1.38 1.42 1.49 1.60 1.58 1.40 1.10 0.71 0.60 0.60 0.57 0.64 0.61 0.52 0.49 0.59
1.81 2.07 2.23 2.35 2.39 2.35 2.25 2.20 2.20 2.13 2.08 1.93 1.76 1.76 1.78 1.72 1.55 1.47 1.47 1.56 1.58 1.52 1.45 1.47 1.53 1.49 1.40 1.39 1.40 1.39 1.40 1.38 1.39 1.37 1.05 0.84 0.71 0.51 0.50 0.52 0.53 0.53 0.57